User: anonymous   Login
Location: Caltech
(34.1382°N, 118.1253°W)
Time: 09:50:55
(UTC-07:00)
Language:

Hamsat - Orbit

View from above orbital plane
View from above orbital plane
View from above satellite
View from above satellite

Ground track
Ground track

The orbit data is extracted from the following two-line orbital elements,

1 28650U 05017B   17083.93211904 +.00000443 +00000-0 +53025-4 0  9992
2 28650 097.6427 061.1713 0024840 051.9408 308.4045 14.88595371643561
Epoch (UTC): 24 March 2017 22:22:15
Eccentricity: 0.0024840
inclination: 97.6427°
perigee height: 585 km
apogee height: 619 km
right ascension of ascending node: 61.1713°
argument of perigee: 51.9408°
revolutions per day: 14.88595371
mean anomaly at epoch: 308.4045°
orbit number at epoch: 64356

The dashed part of the orbit path shows where the satellite is in the earth's shadow,  

DLR